• In United Kingdom
  • List of Countries
  • For 7 days
  • Water Temperature
  • Satellite Maps
  • Weather Map
  • Weather Widgets
  • user-avatar
    Login

    Hourly Weather Annaba

    Today, 29 June, Thursday

    Time Temperature Precipitation Wind Pressure Humidity
    00:00 +25°C° 0 mm 2 mps 756 mmHg 66%
    01:00 +25°C° 0 mm 2 mps 756 mmHg 66%
    02:00 +24°C° 0 mm 2 mps 756 mmHg 66%
    03:00 +24°C° 0 mm 3 mps 756 mmHg 65%
    04:00 +24°C° 0 mm 3 mps 756 mmHg 65%
    05:00 +25°C° 0 mm 2 mps 756 mmHg 59%
    06:00 +27°C° 0 mm 2 mps 756 mmHg 53%
    07:00 +28°C° 0 mm 2 mps 756 mmHg 47%
    08:00 +30°C° 0 mm 2 mps 756 mmHg 42%
    09:00 +32°C° 0 mm 2 mps 756 mmHg 36%
    10:00 +34°C° 0 mm 3 mps 756 mmHg 31%
    11:00 +35°C° 0 mm 4 mps 756 mmHg 31%
    12:00 +36°C° 0 mm 5 mps 756 mmHg 30%
    13:00 +38°C° 0 mm 6 mps 756 mmHg 30%
    14:00 +36°C° 0 mm 5 mps 756 mmHg 34%
    15:00 +35°C° 0 mm 5 mps 755 mmHg 39%
    16:00 +34°C° 0 mm 5 mps 755 mmHg 44%
    17:00 +33°C° 0 mm 4 mps 756 mmHg 49%
    18:00 +30°C° 0 mm 4 mps 756 mmHg 53%
    19:00 +29°C° 0 mm 3 mps 756 mmHg 58%
    20:00 +28°C° 0 mm 2 mps 757 mmHg 64%
    21:00 +26°C° 0 mm 1 mps 757 mmHg 71%
    22:00 +25°C° 0 mm 1 mps 758 mmHg 78%
    23:00 +25°C° 0 mm 1 mps 758 mmHg 79%

    Tomorrow, 30 June, Friday

    Time Temperature Precipitation Wind Pressure Humidity
    00:00 +24°C° 0 mm 1 mps 758 mmHg 81%
    01:00 +23°C° 0 mm 1 mps 757 mmHg 83%
    02:00 +23°C° 0 mm 1 mps 757 mmHg 83%
    03:00 +23°C° 0 mm 1 mps 757 mmHg 83%
    04:00 +20°C° 0 mm 0 mps 756 mmHg 83%
    05:00 +24°C° 0 mm 1 mps 756 mmHg 76%
    06:00 +25°C° 0 mm 1 mps 756 mmHg 70%
    07:00 +27°C° 0 mm 2 mps 756 mmHg 64%
    08:00 +28°C° 0 mm 2 mps 757 mmHg 61%
    09:00 +29°C° 0 mm 3 mps 757 mmHg 57%
    10:00 +30°C° 0 mm 3 mps 757 mmHg 54%
    11:00 +32°C° 0 mm 4 mps 757 mmHg 55%
    12:00 +32°C° 0 mm 5 mps 757 mmHg 56%
    13:00 +32°C° 0 mm 5 mps 757 mmHg 58%
    14:00 +30°C° 0 mm 5 mps 757 mmHg 59%
    15:00 +30°C° 0 mm 5 mps 757 mmHg 61%
    16:00 +29°C° 0 mm 5 mps 757 mmHg 62%
    17:00 +28°C° 0 mm 5 mps 757 mmHg 63%
    18:00 +27°C° 0 mm 5 mps 758 mmHg 64%
    19:00 +27°C° 0 mm 5 mps 758 mmHg 65%
    20:00 +26°C° 0 mm 4 mps 759 mmHg 67%
    21:00 +26°C° 0 mm 4 mps 759 mmHg 69%
    22:00 +25°C° 0 mm 4 mps 760 mmHg 72%
    23:00 +24°C° 0 mm 3 mps 760 mmHg 74%

    Day after tomorrow, 1 July, Saturday

    Time Temperature Precipitation Wind Pressure Humidity
    00:00 +24°C° 0 mm 3 mps 760 mmHg 76%
    01:00 +24°C° 0 mm 2 mps 760 mmHg 78%
    02:00 +23°C° 0 mm 2 mps 760 mmHg 81%
    03:00 +21°C° 0 mm 2 mps 760 mmHg 84%
    04:00 +21°C° 0 mm 1 mps 759 mmHg 87%
    05:00 +22°C° 0 mm 1 mps 760 mmHg 82%
    06:00 +23°C° 0 mm 1 mps 760 mmHg 77%
    07:00 +24°C° 0 mm 1 mps 760 mmHg 72%
    08:00 +26°C° 0 mm 2 mps 760 mmHg 65%
    09:00 +27°C° 0 mm 2 mps 760 mmHg 58%
    10:00 +29°C° 0 mm 3 mps 760 mmHg 51%
    11:00 +29°C° 0.1 mm 4 mps 761 mmHg 52%
    12:00 +29°C° 0.1 mm 4 mps 761 mmHg 52%
    13:00 +29°C° 0.1 mm 5 mps 761 mmHg 52%
    14:00 +29°C° 0 mm 5 mps 761 mmHg 52%
    15:00 +29°C° 0 mm 5 mps 760 mmHg 52%
    16:00 +29°C° 0 mm 5 mps 760 mmHg 52%
    17:00 +28°C° 0 mm 5 mps 761 mmHg 53%
    18:00 +27°C° 0 mm 5 mps 761 mmHg 55%
    19:00 +26°C° 0 mm 5 mps 761 mmHg 56%
    20:00 +25°C° 0 mm 4 mps 762 mmHg 62%
    21:00 +23°C° 0 mm 4 mps 762 mmHg 68%
    22:00 +21°C° 0 mm 3 mps 763 mmHg 75%
    23:00 +21°C° 0 mm 3 mps 763 mmHg 76%

    2 July, Sunday

    Time Temperature Precipitation Wind Pressure Humidity
    00:00 +20°C° 0 mm 3 mps 763 mmHg 78%
    01:00 +20°C° 0 mm 3 mps 763 mmHg 80%
    02:00 +20°C° 0 mm 3 mps 763 mmHg 81%
    03:00 +19°C° 0 mm 3 mps 762 mmHg 81%
    04:00 +19°C° 0 mm 3 mps 762 mmHg 82%
    05:00 +20°C° 0 mm 4 mps 762 mmHg 75%
    06:00 +21°C° 0 mm 4 mps 763 mmHg 68%
    07:00 +23°C° 0 mm 4 mps 763 mmHg 62%
    08:00 +25°C° 0 mm 5 mps 763 mmHg 56%
    09:00 +27°C° 0 mm 5 mps 763 mmHg 51%
    10:00 +29°C° 0 mm 6 mps 763 mmHg 45%
    11:00 +29°C° 0 mm 6 mps 763 mmHg 44%
    12:00 +30°C° 0 mm 7 mps 763 mmHg 43%
    13:00 +32°C° 0 mm 7 mps 763 mmHg 42%
    14:00 +31°C° 0 mm 8 mps 763 mmHg 44%
    15:00 +31°C° 0 mm 8 mps 763 mmHg 45%
    16:00 +31°C° 0 mm 8 mps 763 mmHg 47%
    17:00 +28°C° 0 mm 8 mps 763 mmHg 52%
    18:00 +27°C° 0 mm 7 mps 763 mmHg 57%
    19:00 +26°C° 0 mm 7 mps 763 mmHg 62%
    20:00 +24°C° 0 mm 6 mps 764 mmHg 68%
    21:00 +23°C° 0 mm 6 mps 764 mmHg 75%
    22:00 +21°C° 0 mm 5 mps 765 mmHg 81%
    23:00 +21°C° 0 mm 5 mps 764 mmHg 82%

    3 July, Monday

    Time Temperature Precipitation Wind Pressure Humidity
    00:00 +21°C° 0 mm 5 mps 764 mmHg 83%
    01:00 +21°C° 0 mm 5 mps 764 mmHg 83%
    02:00 +21°C° 0 mm 5 mps 764 mmHg 83%
    03:00 +21°C° 0 mm 5 mps 763 mmHg 84%
    04:00 +20°C° 0 mm 5 mps 763 mmHg 84%
    05:00 +21°C° 0 mm 5 mps 763 mmHg 79%
    06:00 +22°C° 0 mm 5 mps 763 mmHg 75%
    07:00 +23°C° 0 mm 5 mps 763 mmHg 71%
    08:00 +24°C° 0.1 mm 6 mps 763 mmHg 67%
    09:00 +26°C° 0.1 mm 6 mps 763 mmHg 64%
    10:00 +27°C° 0.1 mm 6 mps 764 mmHg 60%
    11:00 +28°C° 0.1 mm 6 mps 763 mmHg 57%
    12:00 +29°C° 0.1 mm 6 mps 763 mmHg 55%
    13:00 +30°C° 0.1 mm 6 mps 763 mmHg 53%
    14:00 +30°C° 0 mm 6 mps 763 mmHg 52%
    15:00 +30°C° 0 mm 6 mps 762 mmHg 51%
    16:00 +30°C° 0 mm 6 mps 762 mmHg 51%
    17:00 +29°C° 0 mm 5 mps 762 mmHg 54%
    18:00 +28°C° 0 mm 5 mps 762 mmHg 58%
    19:00 +27°C° 0 mm 4 mps 762 mmHg 61%
    20:00 +26°C° 0 mm 3 mps 762 mmHg 70%
    21:00 +24°C° 0 mm 2 mps 763 mmHg 78%
    22:00 +21°C° 0 mm 2 mps 763 mmHg 87%
    23:00 +21°C° 0 mm 2 mps 762 mmHg 87%

    4 July, Tuesday

    Time Temperature Precipitation Wind Pressure Humidity
    00:00 +20°C° 0 mm 2 mps 762 mmHg 87%
    01:00 +20°C° 0 mm 2 mps 762 mmHg 87%
    02:00 +20°C° 0 mm 2 mps 762 mmHg 87%
    03:00 +20°C° 0 mm 1 mps 761 mmHg 86%
    04:00 +20°C° 0 mm 1 mps 761 mmHg 86%
    05:00 +22°C° 0 mm 1 mps 761 mmHg 78%
    06:00 +24°C° 0 mm 1 mps 761 mmHg 70%
    07:00 +25°C° 0 mm 1 mps 761 mmHg 62%
    08:00 +28°C° 0 mm 1 mps 761 mmHg 52%
    09:00 +30°C° 0 mm 1 mps 761 mmHg 43%
    10:00 +32°C° 0 mm 1 mps 761 mmHg 34%
    11:00 +35°C° 0 mm 2 mps 760 mmHg 33%
    12:00 +36°C° 0 mm 3 mps 760 mmHg 31%
    13:00 +37°C° 0 mm 4 mps 760 mmHg 30%
    14:00 +37°C° 0 mm 4 mps 759 mmHg 31%
    15:00 +36°C° 0 mm 4 mps 759 mmHg 32%
    16:00 +36°C° 0 mm 4 mps 759 mmHg 33%
    17:00 +35°C° 0 mm 4 mps 759 mmHg 36%
    18:00 +33°C° 0 mm 4 mps 759 mmHg 40%
    19:00 +31°C° 0 mm 3 mps 759 mmHg 43%
    20:00 +29°C° 0 mm 3 mps 759 mmHg 51%
    21:00 +27°C° 0 mm 2 mps 759 mmHg 59%
    22:00 +25°C° 0 mm 2 mps 760 mmHg 68%
    23:00 +24°C° 0 mm 2 mps 759 mmHg 68%
    Show more